This is the latest recevied weather packets stored in our database for station/object EA3BNF-1. If no packets are shown the sender has not sent any weather packets the latest 10 day(s).
| Time | Temp. | Humidity | Pressure | Rain* | Wind** | Luminosity | Snow |
|---|---|---|---|---|---|---|---|
| 1777840408 | 17.78° C | 72% | 1014.4 hPa | - | - | - | - |
| 1777839752 | 17.78° C | 69% | 1014.6 hPa | - | - | - | - |
| 1777839096 | 17.78° C | 71% | 1014.6 hPa | - | - | - | - |
| 1777838441 | 17.78° C | 72% | 1014.6 hPa | - | - | - | - |
| 1777837785 | 18.33° C | 70% | 1014.6 hPa | - | - | - | - |
| 1777837130 | 18.33° C | 70% | 1014.4 hPa | - | - | - | - |
| 1777836474 | 18.89° C | 69% | 1014.4 hPa | - | - | - | - |
| 1777835818 | 18.89° C | 68% | 1014.4 hPa | - | - | - | - |
| 1777835162 | 19.44° C | 66% | 1014.3 hPa | - | - | - | - |
| 1777834507 | 19.44° C | 65% | 1014.3 hPa | - | - | - | - |
| 1777833851 | 19.44° C | 64% | 1014.3 hPa | - | - | - | - |
| 1777833196 | 19.44° C | 63% | 1014.2 hPa | - | - | - | - |
| 1777832540 | 20° C | 62% | 1014.1 hPa | - | - | - | - |
| 1777831884 | 20° C | 60% | 1014.3 hPa | - | - | - | - |
| 1777831229 | 20° C | 60% | 1014.3 hPa | - | - | - | - |
| 1777830573 | 20° C | 60% | 1014.2 hPa | - | - | - | - |
| 1777829918 | 20° C | 61% | 1014.2 hPa | - | - | - | - |
| 1777829262 | 20° C | 64% | 1014.3 hPa | - | - | - | - |
| 1777828606 | 20° C | 66% | 1014.3 hPa | - | - | - | - |
| 1777827951 | 20.56° C | 67% | 1014.3 hPa | - | - | - | - |
| 1777827295 | 20.56° C | 68% | 1014.4 hPa | - | - | - | - |
| 1777826639 | 20.56° C | 68% | 1014.2 hPa | - | - | - | - |
| 1777825983 | 21.11° C | 67% | 1014.1 hPa | - | - | - | - |
| 1777825328 | 21.11° C | 65% | 1013.9 hPa | - | - | - | - |
| 1777824672 | 21.11° C | 65% | 1013.6 hPa | - | - | - | - |
* Rain since midnight (hover to see other rain measurements)
** Current wind speed in m/s (hover to see current wind gust speed)